{"data":{"norad_id":68042,"epoch":"2026-05-25T03:25:23.409120Z","epoch_age_seconds":55956,"freshness":"FRESH","line1":"1 68042U 26041C   26145.14263205  .00013159  00000+0  45551-3 0  9995","line2":"2 68042  53.1600  54.7653 0001239  92.6236 267.4906 15.30207825 13090","mean_motion":15.30207825,"eccentricity":0.0001239,"inclination_deg":53.16,"raan_deg":54.7653,"arg_perigee_deg":92.6236,"mean_anomaly_deg":267.4906,"bstar":0.00045551,"rev_number":1309,"period_min":94.104864481398,"perigee_km":474.34257805275,"apogee_km":476.04083290596,"semimajor_km":6853.3287054794,"source":"CELESTRAK","updated_at":"2026-05-25T13:38:21.810364Z"}}